Regional Weather Roundup
Issued by NWS

Home | Current Version | Previous Version | Text Only | Print | Product List | Glossary On
Versions: 1 2 3 4 5 6 7 8 9 10 11 12 13 14 15 16 17 18 19 20 21 22 23 24 25 26 27 28 29 30 31 32 33 34 35 36 37 38 39 40 41 42 43 44 45 46 47 48 49 50
000
ASUS44 KFWD 311915
RWRTX
NORTH TEXAS HOURLY WEATHER ROUNDUP
NATIONAL WEATHER SERVICE FORT WORTH TX
200 PM CDT FRI OCT 31 2014

NOTE: "FAIR" INDICATES FEW OR NO CLOUDS BELOW 12,000 FEET WITH NO
SIGNIFICANT WEATHER AND/OR OBSTRUCTIONS TO VISIBILITY.

TXZ118-119-312000-
DALLAS/FORT WORTH METROPLEX

CITY           SKY/WX    TMP DP  RH WIND       PRES   REMARKS
DFW AIRPORT    SUNNY     65  41  41 N15       30.31F
DALLAS LOVE    MOSUNNY   66  41  40 N22G29    30.31F
FTW MEACHAM    SUNNY     67  40  37 N18G24    30.32F
DAL-EXECUTIVE  SUNNY     67  41  38 NW17G25   30.30F
FTW-ALLIANCE   SUNNY     64  39  39 N22       30.32F
FTW-NAS-JRB    SUNNY     65  45  48 N16       30.37F
FTW-SPINKS     SUNNY     66  39  37 N22       30.33F
ARLINGTON      SUNNY     66  39  37 N13       30.31F
GRAND PRAIRIE  SUNNY     64  43  45 MISG      30.33F
ADDISON        SUNNY     64  39  39 N15G24    30.32F
MESQUITE       SUNNY     64  41  42 N13G24    30.31F
LANCASTER      SUNNY     65  37  34 N13G23    30.31F
$$

TXZ091>094-102>105-117-120-121-131>134-312000-
NORTH CENTRAL TEXAS

CITY           SKY/WX    TMP DP  RH WIND       PRES   REMARKS
SHRMAN/DENISON SUNNY     62  44  51 N18G26    30.34F
GAINESVILLE    SUNNY     60  40  46 N13G22    30.36F
BOWIE          SUNNY     62  39  44 N12G20    30.36F
BRIDGEPORT     SUNNY     64  42  44 N10G16    30.37F
DECATUR        SUNNY     63  38  39 N8G18     30.34F
DENTON         SUNNY     64  40  41 N18       30.33F
MCKINNEY       SUNNY     64  41  42 N16G23    30.31F
GREENVILLE     SUNNY     64  36  34 N14G22    30.29F
ROCKWALL       SUNNY     64  42  45 N17G25    30.29F
TERRELL        SUNNY     67  41  38 N14G23    30.29F
WAXAHACHIE     SUNNY     66  44  43 N10G18    30.32S
CLEBURNE       SUNNY     64  41  42 N12G24    30.33F
GRANBURY       SUNNY     66  43  42 N12G17    30.34F
$$

TXZ083>090-098>101-113>116-127>130-139>142-154-155-312000-
WESTERN NORTH TEXAS

CITY           SKY/WX    TMP DP  RH WIND       PRES   REMARKS
WICHITA FALLS  SUNNY     61  39  44 N14G22    30.39F
WF-KICKAPOO    SUNNY     60  37  42 N13G21    30.40F
VERNON         SUNNY     63  34  34 NE14      30.40F
ABILENE        SUNNY     67  31  26 N13       30.37F
ABILENE-DYESS  SUNNY     66  34  30 NE12G18   30.36F
BRECKENRIDGE   SUNNY     66  34  30 NE14G20   30.35F HAZE
GRAHAM         SUNNY     64  41  43 N15       30.35F
MINERAL WELLS  SUNNY     65  39  38 N13G23    30.33F
STEPHENVILLE   SUNNY     65  37  35 N12G17    30.36F
COMANCHE       SUNNY     67  40  38 NE13      30.34F
BROWNWOOD      SUNNY     68  36  30 NE9G16    30.33F
COLEMAN        SUNNY     69  39  33 N12G20    30.35F
BRADY          SUNNY     70  36  28 N10       30.32F
$$

TXZ143>147-156>162-174-175-312000-
CENTRAL TEXAS

CITY           SKY/WX    TMP DP  RH WIND       PRES   REMARKS
WACO           SUNNY     70  41  34 N12G20    30.29F
WACO-TSTC      SUNNY     70  39  32 NW15        N/A
WACO-MCGREGOR  SUNNY     70  43  37 N14       30.31F
HILLSBORO      SUNNY     67  39  35 NW17G23   30.30F
CORSICANA      SUNNY     68  41  37 N14G23    30.29F
MEXIA          SUNNY     67  45  44 N14G20    30.27F
HEARNE         SUNNY     71  43  36 N16G23    30.25F
CAMERON        SUNNY     72  42  34 N18       30.26F
TEMPLE         SUNNY     72  39  30 N16G22    30.28F
KILLEEN        SUNNY     70  37  30 NE13G26   30.28F
KILLEEN-SKYLRK SUNNY     72  37  28 N15G23    30.26F
GATESVILLE     SUNNY     68  37  32 N7        30.32F
HAMILTON       SUNNY     68  36  30 N15G21    30.32F
LAMPASAS       SUNNY     71  42  35 N10G17    30.29F
$$

TXZ095>097-106>112-122>126-135>138-148>153-164>167-312000-
EAST TEXAS

CITY           SKY/WX    TMP DP  RH WIND       PRES   REMARKS
PARIS          MOSUNNY   61  41  48 N18       30.30F
SULPHUR SPRNGS SUNNY     65  43  46 N18G26    30.30F
MOUNT PLEASANT SUNNY     66  42  41 N16       30.26F
MINEOLA        SUNNY     66  37  34 N12G23    30.27F
TYLER          SUNNY     68  43  40 NW15G21   30.24F
LONGVIEW       SUNNY     68  43  40 N18G25    30.21F
MARSHALL       MOSUNNY   68  45  42 N15       30.23F
ATHENS         SUNNY     64  41  42 N10G20    30.25F
PALESTINE      SUNNY     69  44  39 NW10G18   30.25F
JACKSONVILLE   SUNNY     68  41  37 N8G17     30.24F
HENDERSON      SUNNY     68  43  39 N10G16    30.22F
NACOGDOCHES    MOSUNNY   72  43  35 N17       30.20F
LUFKIN         SUNNY     74  44  34 NW9G21    30.19F
$$

SUPPLEMENTAL OBSERVATIONS (CENTRAL)

CITY           SKY/WX    TMP DP  RH WIND       PRES   REMARKS
LAKE TEXOMA      N/A     57  39  51 N13         N/A
CADDO GRASSLND   N/A     64  43  45 VRB7G17     N/A
PAT MAYSE LAKE   N/A     61  43  51 NW16        N/A
GREENVILLE       N/A     64  41  42 N18G26      N/A
CEDAR HILL       N/A     68  41  37 N9G17       N/A
PALESTINE        N/A     72  43  35 N12         N/A
LAKE LIMESTONE   N/A     70  41  35 N13         N/A
MCGREGOR         N/A     72  39  30 N10G18      N/A
TEMPLE           N/A     72  41  33 N6G22       N/A
$$

SUPPLEMENTAL OBSERVATIONS (WEST)

CITY           SKY/WX    TMP DP  RH WIND       PRES   REMARKS
POSSUM KINGDOM   N/A     64  36  34 N12         N/A
LBJ GRASSLAND    N/A     64  39  39 N13         N/A
GRANBURY         N/A     66  41  39 N12         N/A
COMANCHE         N/A     66  41  39 N14         N/A
HAMBY            N/A     66  32  28 N9G18       N/A
IVIE RESERVOIR   N/A     72  34  25 NE12        N/A
COLORADO BEND    N/A     72  36  26 N8          N/A
$$

SUPPLEMENTAL OBSERVATIONS (EAST)

CITY           SKY/WX    TMP DP  RH WIND       PRES   REMARKS
CLARKSVILLE      N/A     63  41  45 N13         N/A
TEXARKANA        N/A     66  41  39 N9G17       N/A
LINDEN           N/A     68  45  42 VRB3        N/A
CADDO LAKE       N/A     70  43  37 VRB7        N/A
GILMER           N/A     66  41  39 N10G20      N/A
HENDERSON        N/A     68  41  37 VRB14G24    N/A
LUFKIN           N/A     72  45  37 MISG        N/A
N SABINE NF      N/A     72  45  37 MISG        N/A
S SABINE NF      N/A     72  45  37 W7          N/A
$$

SUPPLEMENTAL OBSERVATIONS ARE A COLLECTION OF AUTOMATED INSTRUMENTS
THAT ARE MAINTAINED BY A VARIETY OF FEDERAL AND STATE AGENCIES.
CERTAIN ELEMENTS...SUCH AS HUMIDITY VALUES AND SUSTAINED WIND
SPEEDS...MAY BE APPROXIMATED.




USA.gov is the U.S. government's official web portal to all federal, state and local government web resources and services.